This is the latest recevied weather packets stored in our database for station/object KL4TQ. If no packets are shown the sender has not sent any weather packets the latest 10 day(s).
| Time | Temp. | Humidity | Pressure | Rain* | Wind** | Luminosity | Snow |
|---|---|---|---|---|---|---|---|
| 1777948868 | 7.78° C | 70% | 857 hPa | 1.02 mm | - | 76 W/m² | - |
| 1777948569 | 7.78° C | 69% | 857 hPa | 0.51 mm | - | 80 W/m² | - |
| 1777948268 | 7.78° C | 69% | 857 hPa | 0.25 mm | - | 71 W/m² | - |
| 1777947968 | 8.33° C | 69% | 857 hPa | 0.51 mm | - | 64 W/m² | - |
| 1777947668 | 8.33° C | 68% | 857 hPa | 1.52 mm | - | 63 W/m² | - |
| 1777947372 | 8.33° C | 67% | 857 hPa | 0.51 mm | - | 75 W/m² | - |
| 1777947070 | 8.33° C | 66% | 857 hPa | 0 mm | - | 76 W/m² | - |
| 1777946768 | 8.33° C | 66% | 857 hPa | 0.51 mm | - | 71 W/m² | - |
| 1777946469 | 8.33° C | 66% | 857 hPa | 0 mm | - | 73 W/m² | - |
| 1777946170 | 8.33° C | 66% | 857 hPa | 0.51 mm | - | 92 W/m² | - |
| 1777945868 | 8.33° C | 67% | 857 hPa | 0.25 mm | - | 113 W/m² | - |
| 1777945568 | 8.89° C | 66% | 857 hPa | 0.51 mm | - | 126 W/m² | - |
| 1777945269 | 8.89° C | 65% | 857 hPa | 0.76 mm | - | 132 W/m² | - |
| 1777944970 | 8.89° C | 64% | 857 hPa | 0.76 mm | - | 146 W/m² | - |
| 1777944669 | 8.89° C | 63% | 857 hPa | 0 mm | - | 168 W/m² | - |
| 1777944368 | 9.44° C | 62% | 857 hPa | 0 mm | - | 171 W/m² | - |
| 1777944068 | 9.44° C | 62% | 857 hPa | 0 mm | - | 174 W/m² | - |
| 1777943769 | 9.44° C | 62% | 857 hPa | 0 mm | - | 176 W/m² | - |
| 1777943468 | 9.44° C | 62% | 857 hPa | 0 mm | - | 177 W/m² | - |
| 1777943168 | 9.44° C | 62% | 857 hPa | 0 mm | - | 183 W/m² | - |
| 1777942869 | 9.44° C | 62% | 857 hPa | 0 mm | - | 174 W/m² | - |
| 1777942569 | 9.44° C | 62% | 857 hPa | 0 mm | - | 190 W/m² | - |
| 1777942268 | 9.44° C | 61% | 857 hPa | 0 mm | - | 215 W/m² | - |
| 1777941968 | 9.44° C | 61% | 857 hPa | 0 mm | - | 225 W/m² | - |
| 1777941669 | 9.44° C | 62% | 857 hPa | 0 mm | - | 246 W/m² | - |
* Rain latest hour (hover to see other rain measurements)
** Current wind speed in m/s (hover to see current wind gust speed)